STARLINK-35247 (65622 NORAD) Tracking and Keplerian Element Data

This shows tracking and keplerian element data for the satellite.

Feedback or suggestion? Click here.




ElementValue
Catalog65622
NameSTARLINK-35247
Epoch Orbit1554
Epoch Day354.09904467
Epoch Year2025
RAAN316.8998
Inclination53.1613
Eccentricity0.000149
Argument of Perigee104.8273
Mean Anonmoly255.2893
Mean Motion15.30200253
Decay Rate0.00016402
L11 65622U 25210A 25354.09904467 .00016402 00000+0 56466-3 0 9991
L22 65622 53.1613 316.8998 0001490 104.8273 255.2893 15.30200253 15545



Live tracking and technical data element details for STARLINK-35247 (NORAD 65622). STARLINK-35247 can be tracked NOW for your location showing map with azimuth and elevation plus other details from your city location.







IsCatalogInMostPopularTable: catalog: 65622, numindb: 4
Update: records affected: 1



GetName: 65622 STARLINK-35247

Hit Count: updated at: Tue, 21 Apr 2026 20:39:06 GMT